This demonstration page uses our WeatherBlox Daily Observations layout. Learn more.

40.92945, -100.16068

Hourly Observations for January 1, 2015

Temp ( °F °C ) Dew Point ( °F °C ) Humidity (%) Winds ( mph kmh ) Pressure ( in mb ) Visibility ( mi km ) Precip ( " mm )
12:15 am 00:15 Clear 2 -16.4 -3 -19.4 78 78 NW 7 11 30.45 1031 10 16.0934 N/A
12:35 am 00:35 Clear 3 -16.3 -3 -19.2 79 79 WNW 7 11 30.45 1031 10 16.0934 N/A
12:55 am 00:55 Clear 4 -15.6 -2 -18.7 77 77 WNW 9 15 30.45 1031 10 16.0934 N/A
1:15 am 01:15 Clear 4 -15.5 -2 -18.7 77 77 WNW 8 13 30.45 1031 10 16.0934 N/A
1:35 am 01:35 Clear 4 -15.6 -2 -18.8 77 77 WNW 8 13 30.45 1031 10 16.0934 N/A
1:55 am 01:55 Clear 4 -15.8 -2 -18.9 77 77 WNW 7 11 30.45 1031 10 16.0934 N/A
2:15 am 02:15 Clear 4 -15.7 -2 -18.8 77 77 WNW 6 9 30.42 1030 10 16.0934 N/A
2:35 am 02:35 Clear 4 -15.8 -1 -18.6 79 79 WNW 7 11 30.42 1030 10 16.0934 N/A
2:55 am 02:55 Clear 4 -15.5 -1 -18.5 78 78 WNW 7 11 30.39 1029 10 16.0934 N/A
3:15 am 03:15 Clear 5 -15 0 -18 78 78 WNW 9 15 30.39 1029 10 16.0934 N/A
3:35 am 03:35 Clear 5 -15 0 -17.9 79 79 WNW 8 13 30.39 1029 10 16.0934 N/A
3:55 am 03:55 Clear 6 -14.6 0 -17.6 78 78 W 6 9 30.39 1029 10 16.0934 N/A
4:15 am 04:15 Clear 4 -15.7 -2 -18.7 78 78 W 8 13 30.42 1030 10 16.0934 N/A
4:35 am 04:35 Clear 3 -16 -2 -18.8 79 79 W 9 15 30.42 1030 10 16.0934 N/A
4:55 am 04:55 Clear 4 -15.7 -1 -18.4 80 80 W 9 15 30.39 1029 10 16.0934 N/A
5:15 am 05:15 Clear 5 -15.2 0 -18 79 79 W 8 13 30.36 1028 10 16.0934 N/A
5:35 am 05:35 Clear 6 -14.4 1 -17.1 80 80 WNW 7 11 30.36 1028 10 16.0934 N/A
5:55 am 05:55 Clear 6 -14.5 1 -17.3 79 79 WNW 8 13 30.36 1028 10 16.0934 N/A
6:15 am 06:15 Clear 5 -15 0 -17.7 80 80 WNW 7 11 30.36 1028 10 16.0934 N/A
6:35 am 06:35 Clear 6 -14.6 1 -17.2 81 81 NW 7 11 30.36 1028 10 16.0934 N/A
6:55 am 06:55 Clear 6 -14.7 1 -17.5 79 79 WNW 7 11 30.33 1027 10 16.0934 N/A
7:15 am 07:15 Clear 5 -15 0 -17.6 81 81 WNW 8 13 30.33 1027 10 16.0934 N/A
7:35 am 07:35 Clear 5 -15 0 -17.8 79 79 WNW 7 11 30.33 1027 10 16.0934 N/A
7:55 am 07:55 Clear 4 -15.4 0 -18 81 81 NW 7 11 30.33 1027 10 16.0934 N/A
8:15 am 08:15 Sunny 5 -15.2 0 -17.9 80 80 WNW 8 13 30.33 1027 10 16.0934 N/A
8:35 am 08:35 Sunny 5 -15 0 -17.6 81 81 WNW 8 13 30.33 1027 10 16.0934 N/A
8:55 am 08:55 Sunny 6 -14.2 1 -17.1 79 79 WNW 12 19 30.33 1027 10 16.0934 N/A
9:15 am 09:15 Sunny 7 -14 1 -17.1 78 78 W 7 11 30.36 1028 10 16.0934 N/A
9:35 am 09:35 Sunny 7 -13.7 2 -16.7 78 78 WNW 10 17 30.36 1028 10 16.0934 N/A
9:55 am 09:55 Sunny 9 -12.7 3 -16 77 77 NW 8 13 30.36 1028 10 16.0934 N/A
10:15 am 10:15 Sunny 12 -11.3 5 -14.9 75 75 W 9 15 30.3 1026 10 16.0934 N/A
10:35 am 10:35 Sunny 13 -10.4 6 -14.3 73 73 WNW 7 11 30.27 1025 10 16.0934 N/A
10:55 am 10:55 Sunny 15 -9.3 8 -13.5 72 72 W 9 15 30.3 1026 10 16.0934 N/A
11:15 am 11:15 Sunny 17 -8.4 9 -12.9 70 70 W 7 11 30.27 1025 10 16.0934 N/A
11:35 am 11:35 Sunny 19 -7.4 10 -12.1 69 69 W 8 13 30.24 1024 10 16.0934 N/A
11:55 am 11:55 Sunny 20 -6.8 11 -11.5 70 70 WSW 5 7 30.24 1024 10 16.0934 N/A
12:15 pm 12:15 Sunny 22 -5.7 12 -10.9 67 67 W 6 9 30.21 1023 10 16.0934 N/A
12:35 pm 12:35 Sunny 23 -4.9 13 -10.4 66 66 WNW 7 11 30.21 1023 10 16.0934 N/A
12:55 pm 12:55 Sunny 25 -4 16 -9.1 68 68 NW 7 11 30.18 1022 10 16.0934 N/A
1:15 pm 13:15 Sunny 26 -3.5 16 -8.8 67 67 NW 8 13 30.18 1022 10 16.0934 N/A
1:35 pm 13:35 Sunny 27 -2.7 17 -8.3 66 66 NW 7 11 30.18 1022 10 16.0934 N/A
1:55 pm 13:55 Sunny 28 -2.4 17 -8.2 65 65 NW 8 13 30.18 1022 10 16.0934 N/A
2:15 pm 14:15 Sunny 28 -2 18 -7.7 65 65 WNW 7 11 30.18 1022 10 16.0934 N/A
2:35 pm 14:35 Sunny 29 -1.8 19 -7.4 66 66 WNW 8 13 30.18 1022 10 16.0934 N/A
2:55 pm 14:55 Sunny 28 -2 19 -7.4 67 67 NW 7 11 30.12 1020 10 16.0934 N/A
3:15 pm 15:15 Sunny 29 -1.7 19 -7.4 65 65 W 5 7 30.18 1022 10 16.0934 N/A
3:35 pm 15:35 Partly Cloudy 30 -1.3 20 -6.5 68 68 WNW 6 9 30.15 1021 10 16.0934 N/A
3:55 pm 15:55 Sunny 30 -1 20 -6.6 66 66 W 3 6 30.15 1021 10 16.0934 N/A
4:15 pm 16:15 Sunny 29 -1.4 21 -6 71 71 NW 5 7 30.15 1021 10 16.0934 N/A
4:35 pm 16:35 Sunny 29 -1.7 22 -5.5 76 76 Calm 30.18 1022 10 16.0934 N/A
4:55 pm 16:55 Partly Cloudy 29 -1.8 22 -5.5 76 76 WSW 3 6 30.18 1022 10 16.0934 N/A
5:15 pm 17:15 Mostly Cloudy 28 -2 23 -5 80 80 Calm 30.18 1022 10 16.0934 N/A
5:35 pm 17:35 Mostly Cloudy 28 -2.4 23 -5.1 82 82 W 3 6 30.18 1022 10 16.0934 N/A
5:55 pm 17:55 Clear 9 -12.9 2 -16.4 75 75 WNW 3 6 30.48 1032 10 16.0934 N/A
6:15 pm 18:15 Partly Cloudy 25 -3.9 20 -6.6 82 82 NNW 6 9 30.18 1022 10 16.0934 N/A
6:35 pm 18:35 Mostly Cloudy 26 -3.6 20 -6.7 79 79 N 9 15 30.18 1022 10 16.0934 N/A
6:55 pm 18:55 Partly Cloudy 25 -4.1 18 -8 75 75 NNW 6 9 30.18 1022 10 16.0934 N/A
7:15 pm 19:15 Clear 23 -5.1 17 -8.2 79 79 NW 5 7 30.21 1023 10 16.0934 N/A
7:35 pm 19:35 Clear 21 -6.3 15 -9.3 80 80 WSW 3 6 30.21 1023 10 16.0934 N/A
7:55 pm 19:55 Clear 20 -6.8 15 -9.4 82 82 W 5 7 30.21 1023 10 16.0934 N/A
8:15 pm 20:15 Clear 17 -8.1 13 -10.5 83 83 WNW 8 13 30.24 1024 10 16.0934 N/A
8:35 pm 20:35 Clear 16 -9.1 11 -11.4 84 84 NW 8 13 30.27 1025 10 16.0934 N/A
8:55 pm 20:55 Clear 16 -8.9 12 -11 85 85 WNW 9 15 30.27 1025 10 16.0934 N/A
9:15 pm 21:15 Clear 15 -9.2 12 -11.3 85 85 W 7 11 30.27 1025 10 16.0934 N/A
9:35 pm 21:35 Clear 14 -9.8 11 -11.9 85 85 W 7 11 30.27 1025 10 16.0934 N/A
9:55 pm 21:55 Clear 13 -10.3 10 -12.4 85 85 W 6 9 30.27 1025 10 16.0934 N/A
10:15 pm 22:15 Clear 13 -10.4 10 -12.2 87 87 W 9 15 30.27 1025 10 16.0934 N/A
10:35 pm 22:35 Clear 14 -10.1 10 -12.1 85 85 W 8 13 30.27 1025 10 16.0934 N/A
10:55 pm 22:55 Clear 13 -10.6 10 -12.5 86 86 WNW 7 11 30.3 1026 10 16.0934 N/A
11:15 pm 23:15 Clear 12 -11.1 9 -12.9 87 87 WNW 6 9 30.3 1026 10 16.0934 N/A
11:35 pm 23:35 Partly Cloudy 12 -11.2 9 -13 87 87 WNW 6 9 30.33 1027 10 16.0934 N/A
11:55 pm 23:55 Mostly Cloudy 13 -10.7 10 -12.5 87 87 W 6 9 30.33 1027 10 16.0934 N/A

Powered by AerisWeather